Angleton, TX

2:15 PM CST on January 21, 2017 (GMT -0600)
Angleton

Weather History for KLBX - February, 2014

Change the Weather History Date:

Wednesday, February 12, 2014

  Actual Average Record
Temperature  
Mean Temperature 42 °F -  
Max Temperature 51 °F 63 °F 78 °F (2016)
Min Temperature 34 °F 47 °F 24 °F (2006)
Degree Days  
Heating Degree Days 22    
Moisture  
Dew Point 33 °F    
Average Humidity 80    
Maximum Humidity 96    
Minimum Humidity 48    
Precipitation  
Precipitation 0.00 in - - ()
Sea Level Pressure  
Sea Level Pressure 30.12 in    
Wind  
Wind Speed 10 mph (NNW)    
Max Wind Speed 14 mph    
Max Gust Speed 20 mph    
Visibility 10 miles    
Events      
Averages and records for this station are not official NWS values.
T = Trace of Precipitation, MM = Missing Value Source: NWS Daily Summary

Daily Weather History Graph

Daily Weather History Graph

Search for Another Location

Airport or City:

Trip Planner

Search our weather history database for the weather conditions in past years. The results will help you decide how hot, cold, wet, or windy it might be!

Date:

Astronomy

Feb. 12, 2014 Rise Set
Actual Time 7:03 AM CST 6:09 PM CST
Civil Twilight 6:38 AM CST 6:33 PM CST
Nautical Twilight 6:10 AM CST 7:01 PM CST
Astronomical Twilight 5:43 AM CST 7:29 PM CST
Moon 4:27 PM CST (2/12) 5:16 AM CST (2/12)
Length of Visible Light 11h 54m
Length of Day
11h 06m
Waxing Gibbous, 95% of the Moon is Illuminated
Feb 12
Waxing Gibbous
Feb 14
Full
Feb 22
Last Quarter
Mar 1
New
Mar 8
First Quarter

Hourly Weather History & Observations

Time (CST) Temp. Windchill Dew Point Humidity Pressure Visibility Wind Dir Wind Speed Gust Speed Precip Events Conditions
12:13 AM 36.0 °F 28.5 °F 34.0 °F 93% 30.13 in 10.0 mi North 10.4 mph - N/A   Overcast
12:32 AM 36.0 °F 28.5 °F 34.0 °F 93% 30.13 in 10.0 mi North 10.4 mph - N/A   Overcast
12:53 AM 36.0 °F 28.5 °F 34.0 °F 93% 30.12 in 10.0 mi NNW 10.4 mph - N/A   Overcast
1:05 AM 36.0 °F 28.0 °F 34.0 °F 93% 30.12 in 10.0 mi North 11.5 mph - N/A   Overcast
1:49 AM 35.6 °F 28.6 °F 33.8 °F 93% 30.13 in 10.0 mi NNW 9.2 mph - N/A   Overcast
1:53 AM 36.0 °F 28.5 °F 34.0 °F 93% 30.14 in 10.0 mi NNW 10.4 mph - N/A   Overcast
2:53 AM 35.1 °F 26.4 °F 34.0 °F 96% 30.13 in 7.0 mi North 12.7 mph - N/A   Overcast
3:53 AM 35.1 °F 27.4 °F 33.1 °F 92% 30.12 in 10.0 mi NNW 10.4 mph - N/A   Overcast
4:22 AM 35.1 °F 30.1 °F 34.0 °F 96% 30.12 in 10.0 mi NNW 5.8 mph - N/A   Overcast
4:37 AM 35.1 °F 27.9 °F 33.1 °F 92% 30.13 in 10.0 mi NNW 9.2 mph - N/A   Overcast
4:53 AM 35.1 °F 28.6 °F 33.1 °F 92% 30.13 in 10.0 mi NW 8.1 mph - N/A   Overcast
5:53 AM 36.0 °F 28.0 °F 33.1 °F 89% 30.13 in 10.0 mi NNW 11.5 mph 17.3 mph N/A   Overcast
6:53 AM 36.0 °F 29.0 °F 33.1 °F 89% 30.13 in 10.0 mi NNW 9.2 mph - N/A   Overcast
7:53 AM 35.1 °F 27.4 °F 33.1 °F 92% 30.14 in 7.0 mi NNW 10.4 mph - N/A   Overcast
8:53 AM 36.0 °F 28.5 °F 33.1 °F 89% 30.15 in 9.0 mi NNW 10.4 mph - N/A   Overcast
9:53 AM 36.0 °F 28.0 °F 33.1 °F 89% 30.17 in 7.0 mi NW 11.5 mph - N/A   Overcast
10:53 AM 36.0 °F 27.1 °F 34.0 °F 93% 30.19 in 7.0 mi NNW 13.8 mph 18.4 mph N/A   Overcast
11:53 AM 39.0 °F 32.8 °F 34.0 °F 82% 30.16 in 10.0 mi NNW 9.2 mph - N/A   Overcast
12:33 PM 44.1 °F 39.0 °F 36.0 °F 73% 30.12 in 10.0 mi NNW 9.2 mph - N/A   Mostly Cloudy
12:49 PM 46.4 °F 41.9 °F 35.6 °F 66% 30.11 in 10.0 mi NNW 9.2 mph 18.4 mph N/A   Scattered Clouds
12:53 PM 46.0 °F 40.2 °F 36.0 °F 68% 30.11 in 10.0 mi North 12.7 mph 19.6 mph N/A   Partly Cloudy
1:53 PM 50.0 °F - 36.0 °F 59% 30.08 in 10.0 mi North 12.7 mph - N/A   Clear
2:53 PM 51.1 °F - 35.1 °F 54% 30.06 in 10.0 mi NNW 10.4 mph - N/A   Clear
3:53 PM 51.1 °F - 32.0 °F 48% 30.04 in 10.0 mi NNW 9.2 mph - N/A   Clear
4:53 PM 50.0 °F - 32.0 °F 50% 30.06 in 10.0 mi NNW 13.8 mph - N/A   Clear
5:53 PM 48.0 °F - 32.0 °F 54% 30.07 in 10.0 mi NW 8.1 mph - N/A   Clear
6:53 PM 45.0 °F 42.6 °F 32.0 °F 60% 30.08 in 10.0 mi NW 4.6 mph - N/A   Clear
7:53 PM 43.0 °F 40.3 °F 32.0 °F 65% 30.11 in 10.0 mi NW 4.6 mph - N/A   Clear
8:53 PM 42.1 °F 39.2 °F 32.0 °F 67% 30.12 in 10.0 mi NNW 4.6 mph - N/A   Clear
9:53 PM 41.0 °F 39.0 °F 32.0 °F 70% 30.11 in 10.0 mi NNW 3.5 mph - N/A   Clear
10:53 PM 34.0 °F - 30.0 °F 85% 30.12 in 10.0 mi Calm Calm - N/A   Clear
11:53 PM 34.0 °F - 30.9 °F 89% 30.10 in 10.0 mi Calm Calm - N/A   Clear